SCP
0 0 -0 0 0 0 0 0 -0 0 -0 -0 -0 -0 -0 -0 -0 -0 0 0 0 -0 -0 -0 -0 -0 -0 -0 -0 -0 -0 -0 -0 -0 -0 -0 -0 -0 -0 -0 0 0 0
0 0 0 -0 0 0 0 0 0 -0 -0 -0 -0 -0 -0 -0 -0 -0 0 0 0 0 -0 -0 0 -0 0 0 -0 -0 -0 -0 -0 -0 -0 -0 -0 -0 -0 -0 -0 -0 -0
0 1 0 0 0 0 0 0 0 0 -0 -0 0 0 -0 -0 -0 -0 -0 0 0 0 0 0 0 0 0 0 -0 -0 -0 -0 -0 -0 0 0 0 -0 -0 0 -0 -0 -0
0 1 1 0 0 0 0 0 0 0 0 -0 0 0 0 0 0 0 0 0 0 0 0 0 0 0 0 0 0 0 -0 -0 -0 -0 0 0 0 -0 -0 -0 -0 -0 -0
0 1 1 1 1 0 0 0 0 0 0 0 0 0 0 0 0 0 0 0 0 0 0 0 0 0 0 0 0 0 0 0 0 0 0 0 0 -0 0 0 -0 -0 0
1 1 1 1 1 1 0 0 0 0 0 0 0 0 0 0 0 0 0 0 0 0 0 0 0 0 0 0 0 0 0 0 0 0 0 0 0 -0 0 0 0 0 0
0 1 1 1 1 1 1 0 0 0 0 0 0 0 0 0 0 0 0 0 0 0 0 0 0 0 0 0 0 0 0 0 0 0 0 0 0 0 0 0 0 0 0
1 0 1 1 1 1 1 1 0 0 0 0 0 0 0 0 0 0 0 0 0 0 0 0 0 0 0 0 0 0 0 0 0 0 0 0 0 0 0 0 0 0 0
1 0 0 1 1 1 1 1 0 0 0 0 0 0 0 0 0 0 0 0 0 0 0 0 0 0 0 0 0 0 0 0 0 0 0 0 -0 0 0 0 0 0 0
0 1 0 1 1 1 1 1 1 1 1 1 0 0 0 0 0 0 0 0 0 0 0 0 0 0 0 0 0 0 0 0 0 0 0 0 -0 0 0 0 0 0 0
0 0 0 1 1 1 1 1 1 1 1 0 0 0 0 0 0 0 0 0 0 0 0 0 0 0 0 0 0 0 0 0 0 0 0 0 0 0 0 0 0 0 0
0 0 0 0 1 1 1 1 1 1 1 0 0 0 0 0 0 0 0 0 0 0 0 0 0 0 0 0 0 0 0 0 0 0 0 0 0 0 0 0 0 0 0
0 0 0 0 0 1 1 1 1 1 1 1 0 0 0 0 0 0 0 0 0 0 0 0 0 0 0 0 0 0 0 0 0 0 0 0 0 0 0 0 0 0 0
0 0 0 0 0 0 1 1 1 1 1 1 1 0 0 0 0 0 0 0 0 0 0 0 0 0 0 0 0 0 0 0 0 0 0 0 0 0 0 0 0 0 0
0 0 0 0 0 0 0 1 1 1 1 1 1 0 0 0 0 0 0 0 0 0 0 0 0 0 0 0 0 0 0 0 0 0 0 0 0 0 0 0 0 0 0
-0 0 0 0 0 0 0 0 0 1 1 2 1 0 0 0 0 0 0 0 0 0 0 0 0 0 0 0 0 0 0 0 0 0 0 0 0 0 0 0 0 0 0
-0 -0 0 0 0 0 0 0 0 1 2 1 1 0 0 0 0 0 0 0 0 0 0 0 0 0 0 0 0 0 0 0 0 0 0 0 0 0 0 0 0 0 0
-0 -0 -0 0 0 0 0 0 0 1 2 1 1 1 0 0 0 0 0 0 0 0 0 0 0 0 0 0 0 0 0 0 0 0 0 0 0 0 0 0 0 0 0
0 -0 -0 0 0 0 0 0 0 1 1 1 1 1 0 0 0 0 0 0 0 0 0 0 0 0 0 0 0 0 0 0 0 0 0 0 0 0 0 0 0 0 0
0 -0 -0 -0 0 0 0 0 0 0 1 1 0 0 0 0 0 0 0 0 0 0 0 0 0 0 0 0 0 0 0 0 0 0 0 0 0 0 0 0 0 0 0
0 0 -0 -0 0 0 0 0 0 0 1 0 0 0 0 0 0 0 0 0 0 0 0 0 0 0 0 0 0 0 0 0 0 0 0 0 0 0 0 0 0 0 0
0 0 0 -0 0 0 0 0 1 1 1 0 0 0 0 0 0 0 0 0 0 0 0 0 0 0 0 0 0 0 0 0 0 0 0 0 0 0 0 0 0 0 0
0 0 0 -0 0 -0 0 0 1 1 0 1 1 0 0 0 0 0 0 0 0 0 0 0 0 0 0 0 0 0 0 0 0 0 0 0 0 0 0 0 0 0 0
0 0 0 -0 -0 0 -0 1 1 0 1 0 0 0 0 0 0 0 0 0 0 0 0 0 0 0 0 0 0 0 0 0 0 0 0 0 0 0 0 0 0 0 0
0 0 0 0 -0 0 0 0 0 0 0 0 0 0 0 0 0 0 0 0 0 0 0 0 0 0 0 0 0 0 0 0 0 0 0 0 0 0 0 0 0 0 0
0 0 0 0 -0 0 0 0 0 0 0 0 0 0 0 0 0 0 0 0 0 0 0 0 0 0 0 0 0 0 0 0 0 0 0 0 0 0 0 0 0 0 0
Wind_Speed_500mb
46 47 56 54 50 50 47 46 44 42 39 38 37 36 34 32 35 37 38 36 27 21 20 27 29 31 34 34 33 27 23 23 29 30 29 31 31 31 31 36 34 41 38
42 53 60 57 54 54 51 48 45 43 41 38 35 33 33 34 37 38 35 30 26 24 26 29 39 35 38 41 33 30 32 33 34 30 23 28 29 28 30 35 36 30 37
43 54 60 59 56 56 53 50 47 44 42 38 36 35 35 34 36 34 32 27 23 24 27 33 37 30 36 38 34 34 32 36 36 32 28 30 30 26 26 35 30 32 28
24 45 58 60 58 57 55 51 49 46 43 40 36 34 34 35 36 34 30 25 24 24 24 34 39 32 34 39 41 38 35 37 37 39 31 31 28 25 26 26 30 32 28
26 33 53 60 56 57 56 54 51 48 46 42 37 34 34 34 32 34 36 35 29 31 29 19 33 31 36 44 37 41 31 30 28 29 24 24 28 25 27 23 33 35 38
28 33 43 56 59 56 57 55 53 50 48 45 42 38 35 37 36 39 40 38 29 23 25 23 23 23 31 38 33 41 34 30 27 26 24 22 26 27 24 25 31 37 36
38 37 41 51 59 58 56 55 55 53 51 49 45 42 39 36 37 36 39 39 32 35 32 26 31 27 34 35 35 32 27 27 23 22 22 20 21 23 18 22 44 34 27
41 48 46 50 59 61 59 57 56 56 54 52 48 45 41 38 35 34 37 39 40 36 34 32 36 30 34 32 29 26 28 25 22 19 16 17 18 17 18 20 36 32 22
42 49 55 51 59 65 62 61 60 60 57 54 51 47 43 38 36 35 37 39 36 34 35 36 30 39 37 33 28 22 20 21 20 18 13 14 12 14 12 18 20 21 28
32 47 55 61 64 66 67 65 64 63 60 57 54 49 45 40 38 38 38 36 33 29 39 35 38 42 42 39 30 25 20 20 20 19 15 12 15 21 19 17 17 19 23
23 35 51 59 68 70 70 69 67 65 63 61 59 54 49 47 43 44 42 39 32 31 39 37 36 39 40 38 37 32 26 21 19 19 17 14 18 21 20 20 22 23 24
20 26 49 51 66 70 71 71 70 68 66 66 66 61 57 51 48 46 45 39 32 28 33 31 34 34 35 38 40 37 30 24 21 19 19 19 18 19 22 22 17 19 23
48 34 30 51 56 72 73 74 75 75 73 71 71 67 61 56 54 52 50 45 38 34 32 34 33 37 36 36 38 36 33 29 24 20 22 21 20 20 25 30 29 32 31
62 45 32 34 62 63 74 76 77 80 79 79 78 74 69 64 63 61 58 52 46 42 33 32 34 34 37 37 37 38 37 33 29 26 24 24 23 22 28 30 31 34 36
68 62 46 34 34 61 64 78 79 83 83 84 83 80 76 71 70 67 64 58 53 47 39 35 33 36 38 39 40 40 40 38 34 31 28 27 26 24 25 25 24 27 35
48 56 58 41 31 37 68 68 73 79 83 85 88 85 82 77 74 74 69 63 58 53 46 40 33 34 38 40 42 42 40 41 39 35 31 31 28 26 25 28 28 28 30
47 47 64 51 45 32 36 60 74 79 83 89 92 90 88 82 80 78 75 68 62 57 53 48 41 35 39 43 45 45 44 43 42 38 35 33 32 31 29 30 38 34 34
62 63 71 67 48 37 33 36 58 82 86 90 96 94 93 89 85 81 77 70 66 60 55 53 48 43 42 46 48 48 48 45 44 42 40 37 36 35 34 31 33 46 42
54 57 53 75 55 27 48 36 35 56 81 85 94 102 104 95 88 84 80 74 69 62 60 58 55 51 46 47 49 50 51 50 46 46 45 43 40 40 39 35 35 35 50
50 48 59 79 83 50 57 46 34 40 48 65 77 82 95 87 91 86 81 77 70 67 64 64 61 55 50 47 47 49 51 52 50 52 50 46 45 44 43 40 35 35 36
49 43 47 57 95 84 61 67 47 44 34 37 32 45 99 81 111 83 80 78 75 67 72 67 62 62 58 48 47 48 50 54 56 54 52 52 51 49 47 45 41 39 41
44 41 44 50 67 88 57 65 55 51 32 29 30 38 59 68 57 52 65 76 69 69 70 68 71 69 65 55 54 50 36 54 63 60 59 57 56 50 48 45 45 45 44
36 36 33 42 50 69 85 60 65 49 44 34 26 26 30 46 68 60 69 73 66 69 75 74 75 74 73 65 62 49 25 31 25 42 58 62 59 56 54 50 52 50 50
29 22 29 54 43 51 60 54 58 53 52 50 42 32 34 29 53 56 71 78 68 74 79 83 81 79 77 75 68 70 65 30 19 14 30 40 57 60 59 58 58 57 58
29 26 28 57 39 54 56 61 40 54 49 51 41 36 28 24 44 49 53 64 66 72 79 88 91 94 90 87 75 71 72 72 68 53 45 39 43 47 50 55 58 60 63
22 32 33 45 60 38 44 43 57 39 47 40 37 34 28 27 38 43 38 37 44 53 78 85 91 101 91 88 80 74 70 75 76 77 75 77 70 62 54 49 52 53 55
Wind_Direction_500mb
193 191 184 182 184 183 180 178 176 179 182 183 184 185 187 179 174 177 175 180 187 188 173 156 148 139 134 134 132 130 144 129 141 130 136 131 129 125 124 118 110 119 119
198 189 185 184 185 185 184 183 181 181 185 189 192 191 190 187 182 185 191 196 197 197 185 178 173 182 158 152 152 162 148 139 134 133 129 135 129 126 127 127 127 135 134
194 190 187 187 188 188 189 187 186 185 185 187 189 192 191 190 187 193 197 205 207 200 190 178 180 180 179 164 158 154 161 149 142 139 142 137 129 133 131 132 130 130 129
198 202 193 191 191 192 192 193 191 190 188 187 188 188 188 188 188 192 186 179 167 159 170 179 181 172 172 170 161 156 161 149 153 148 151 135 137 139 130 136 136 130 133
206 207 203 196 195 197 197 198 195 194 193 190 188 187 185 180 179 177 169 166 169 173 179 164 182 194 170 177 168 167 167 166 154 149 149 148 144 142 147 147 157 151 143
202 206 208 207 201 202 203 202 200 199 197 194 191 188 187 178 177 180 181 186 195 202 191 178 182 170 172 177 170 173 158 154 148 154 158 157 153 152 160 159 151 141 146
215 203 206 212 209 205 209 205 204 203 200 197 197 191 192 191 191 192 194 197 193 184 169 180 172 177 161 165 171 166 170 162 152 152 160 163 163 167 182 165 153 152 166
223 218 209 211 212 210 210 210 207 207 204 202 200 197 194 195 197 197 198 197 198 183 179 181 181 181 172 181 182 167 158 158 160 158 159 171 180 172 174 169 175 172 166
230 225 220 216 213 213 213 213 210 209 208 205 202 202 198 198 198 195 197 199 203 205 193 184 183 187 186 188 186 183 171 161 167 170 165 172 174 163 189 178 178 176 162
244 244 231 222 216 212 214 214 214 212 211 208 204 204 203 202 200 195 199 208 215 198 199 190 196 187 193 198 198 198 193 186 175 174 171 180 171 171 200 192 179 175 176
226 236 247 233 222 218 216 215 215 216 214 211 208 207 207 205 204 200 202 208 218 215 196 196 189 192 198 202 204 206 203 202 196 194 198 193 191 191 200 203 198 197 189
306 242 237 241 235 223 221 219 215 216 216 212 211 209 209 208 206 204 206 209 210 208 208 191 186 193 196 201 204 205 209 210 214 213 207 204 204 209 201 208 211 215 212
299 295 278 238 241 230 224 222 218 215 216 217 213 213 211 208 207 204 205 209 204 205 210 194 199 200 200 203 209 214 216 217 218 215 208 214 215 214 205 205 217 223 219
283 284 280 273 243 235 227 227 223 219 215 216 216 214 213 209 208 206 207 208 208 207 204 205 205 204 205 207 212 217 222 222 222 222 220 222 223 220 217 220 227 233 231
285 277 278 281 274 241 239 230 226 222 219 217 216 216 215 213 210 208 209 211 212 211 209 209 214 213 213 213 215 219 223 224 224 229 230 229 228 227 222 223 232 249 240
293 283 265 274 286 272 241 247 233 228 224 222 221 218 217 216 215 211 211 213 214 215 215 215 220 224 222 221 221 223 224 228 229 232 233 235 235 233 232 229 228 234 242
283 278 267 264 282 287 269 244 236 231 228 227 224 222 221 218 217 215 213 213 217 216 218 220 221 224 225 227 228 228 226 228 232 236 238 237 239 240 239 241 233 233 237
291 293 275 259 276 284 289 279 239 235 229 230 231 226 223 221 218 217 217 217 221 221 221 223 226 229 231 232 232 232 231 231 235 240 239 242 243 244 247 253 246 236 238
279 281 257 254 259 278 286 289 254 232 234 234 235 231 223 221 221 218 219 221 220 225 227 226 227 231 236 237 235 233 235 237 239 241 244 246 247 247 250 255 254 251 239
276 273 283 256 248 261 277 291 277 249 237 237 226 228 218 224 220 220 221 220 223 224 228 230 229 232 238 240 240 239 237 241 243 243 245 249 248 248 249 249 255 256 255
266 271 275 251 249 253 274 279 284 269 233 240 244 227 225 230 209 218 223 224 221 227 230 232 233 233 236 236 236 241 240 241 244 243 245 246 246 247 247 248 253 257 261
263 268 266 251 234 245 265 273 268 273 255 243 221 208 228 250 225 239 243 229 227 231 236 235 232 233 235 232 229 235 247 246 244 243 243 245 247 246 245 246 252 255 257
264 264 271 254 227 246 254 271 258 264 252 250 239 237 228 226 227 240 230 228 239 237 241 241 235 232 236 233 231 225 220 236 245 250 247 246 248 246 248 250 252 256 258
271 258 241 231 214 221 242 253 252 249 249 249 253 253 255 249 232 229 233 234 241 239 244 244 242 235 234 235 229 233 232 244 237 265 255 248 246 248 251 253 253 254 259
271 253 207 213 232 216 217 225 250 248 252 247 244 243 243 242 226 216 233 236 246 243 248 248 247 239 235 235 236 236 236 240 247 252 265 259 255 253 252 253 256 258 261
267 252 223 210 214 220 237 224 231 246 240 242 243 247 246 243 241 227 210 225 257 251 251 251 252 244 238 237 241 239 242 242 244 246 251 259 262 265 263 258 259 260 263
Wind_Speed_850mb
46 47 56 54 50 50 47 46 44 42 39 38 37 36 34 32 35 37 38 36 27 21 20 27 29 31 34 34 33 27 23 23 29 30 29 31 31 31 31 36 34 41 38
42 53 60 57 54 54 51 48 45 43 41 38 35 33 33 34 37 38 35 30 26 24 26 29 39 35 38 41 33 30 32 33 34 30 23 28 29 28 30 35 36 30 37
43 54 60 59 56 56 53 50 47 44 42 38 36 35 35 34 36 34 32 27 23 24 27 33 37 30 36 38 34 34 32 36 36 32 28 30 30 26 26 35 30 32 28
24 45 58 60 58 57 55 51 49 46 43 40 36 34 34 35 36 34 30 25 24 24 24 34 39 32 34 39 41 38 35 37 37 39 31 31 28 25 26 26 30 32 28
26 33 53 60 56 57 56 54 51 48 46 42 37 34 34 34 32 34 36 35 29 31 29 19 33 31 36 44 37 41 31 30 28 29 24 24 28 25 27 23 33 35 38
28 33 43 56 59 56 57 55 53 50 48 45 42 38 35 37 36 39 40 38 29 23 25 23 23 23 31 38 33 41 34 30 27 26 24 22 26 27 24 25 31 37 36
38 37 41 51 59 58 56 55 55 53 51 49 45 42 39 36 37 36 39 39 32 35 32 26 31 27 34 35 35 32 27 27 23 22 22 20 21 23 18 22 44 34 27
41 48 46 50 59 61 59 57 56 56 54 52 48 45 41 38 35 34 37 39 40 36 34 32 36 30 34 32 29 26 28 25 22 19 16 17 18 17 18 20 36 32 22
42 49 55 51 59 65 62 61 60 60 57 54 51 47 43 38 36 35 37 39 36 34 35 36 30 39 37 33 28 22 20 21 20 18 13 14 12 14 12 18 20 21 28
32 47 55 61 64 66 67 65 64 63 60 57 54 49 45 40 38 38 38 36 33 29 39 35 38 42 42 39 30 25 20 20 20 19 15 12 15 21 19 17 17 19 23
23 35 51 59 68 70 70 69 67 65 63 61 59 54 49 47 43 44 42 39 32 31 39 37 36 39 40 38 37 32 26 21 19 19 17 14 18 21 20 20 22 23 24
20 26 49 51 66 70 71 71 70 68 66 66 66 61 57 51 48 46 45 39 32 28 33 31 34 34 35 38 40 37 30 24 21 19 19 19 18 19 22 22 17 19 23
48 34 30 51 56 72 73 74 75 75 73 71 71 67 61 56 54 52 50 45 38 34 32 34 33 37 36 36 38 36 33 29 24 20 22 21 20 20 25 30 29 32 31
62 45 32 34 62 63 74 76 77 80 79 79 78 74 69 64 63 61 58 52 46 42 33 32 34 34 37 37 37 38 37 33 29 26 24 24 23 22 28 30 31 34 36
68 62 46 34 34 61 64 78 79 83 83 84 83 80 76 71 70 67 64 58 53 47 39 35 33 36 38 39 40 40 40 38 34 31 28 27 26 24 25 25 24 27 35
48 56 58 41 31 37 68 68 73 79 83 85 88 85 82 77 74 74 69 63 58 53 46 40 33 34 38 40 42 42 40 41 39 35 31 31 28 26 25 28 28 28 30
47 47 64 51 45 32 36 60 74 79 83 89 92 90 88 82 80 78 75 68 62 57 53 48 41 35 39 43 45 45 44 43 42 38 35 33 32 31 29 30 38 34 34
62 63 71 67 48 37 33 36 58 82 86 90 96 94 93 89 85 81 77 70 66 60 55 53 48 43 42 46 48 48 48 45 44 42 40 37 36 35 34 31 33 46 42
54 57 53 75 55 27 48 36 35 56 81 85 94 102 104 95 88 84 80 74 69 62 60 58 55 51 46 47 49 50 51 50 46 46 45 43 40 40 39 35 35 35 50
50 48 59 79 83 50 57 46 34 40 48 65 77 82 95 87 91 86 81 77 70 67 64 64 61 55 50 47 47 49 51 52 50 52 50 46 45 44 43 40 35 35 36
49 43 47 57 95 84 61 67 47 44 34 37 32 45 99 81 111 83 80 78 75 67 72 67 62 62 58 48 47 48 50 54 56 54 52 52 51 49 47 45 41 39 41
44 41 44 50 67 88 57 65 55 51 32 29 30 38 59 68 57 52 65 76 69 69 70 68 71 69 65 55 54 50 36 54 63 60 59 57 56 50 48 45 45 45 44
36 36 33 42 50 69 85 60 65 49 44 34 26 26 30 46 68 60 69 73 66 69 75 74 75 74 73 65 62 49 25 31 25 42 58 62 59 56 54 50 52 50 50
29 22 29 54 43 51 60 54 58 53 52 50 42 32 34 29 53 56 71 78 68 74 79 83 81 79 77 75 68 70 65 30 19 14 30 40 57 60 59 58 58 57 58
29 26 28 57 39 54 56 61 40 54 49 51 41 36 28 24 44 49 53 64 66 72 79 88 91 94 90 87 75 71 72 72 68 53 45 39 43 47 50 55 58 60 63
22 32 33 45 60 38 44 43 57 39 47 40 37 34 28 27 38 43 38 37 44 53 78 85 91 101 91 88 80 74 70 75 76 77 75 77 70 62 54 49 52 53 55
Wind_Direction_850mb
193 191 184 182 184 183 180 178 176 179 182 183 184 185 187 179 174 177 175 180 187 188 173 156 148 139 134 134 132 130 144 129 141 130 136 131 129 125 124 118 110 119 119
198 189 185 184 185 185 184 183 181 181 185 189 192 191 190 187 182 185 191 196 197 197 185 178 173 182 158 152 152 162 148 139 134 133 129 135 129 126 127 127 127 135 134
194 190 187 187 188 188 189 187 186 185 185 187 189 192 191 190 187 193 197 205 207 200 190 178 180 180 179 164 158 154 161 149 142 139 142 137 129 133 131 132 130 130 129
198 202 193 191 191 192 192 193 191 190 188 187 188 188 188 188 188 192 186 179 167 159 170 179 181 172 172 170 161 156 161 149 153 148 151 135 137 139 130 136 136 130 133
206 207 203 196 195 197 197 198 195 194 193 190 188 187 185 180 179 177 169 166 169 173 179 164 182 194 170 177 168 167 167 166 154 149 149 148 144 142 147 147 157 151 143
202 206 208 207 201 202 203 202 200 199 197 194 191 188 187 178 177 180 181 186 195 202 191 178 182 170 172 177 170 173 158 154 148 154 158 157 153 152 160 159 151 141 146
215 203 206 212 209 205 209 205 204 203 200 197 197 191 192 191 191 192 194 197 193 184 169 180 172 177 161 165 171 166 170 162 152 152 160 163 163 167 182 165 153 152 166
223 218 209 211 212 210 210 210 207 207 204 202 200 197 194 195 197 197 198 197 198 183 179 181 181 181 172 181 182 167 158 158 160 158 159 171 180 172 174 169 175 172 166
230 225 220 216 213 213 213 213 210 209 208 205 202 202 198 198 198 195 197 199 203 205 193 184 183 187 186 188 186 183 171 161 167 170 165 172 174 163 189 178 178 176 162
244 244 231 222 216 212 214 214 214 212 211 208 204 204 203 202 200 195 199 208 215 198 199 190 196 187 193 198 198 198 193 186 175 174 171 180 171 171 200 192 179 175 176
226 236 247 233 222 218 216 215 215 216 214 211 208 207 207 205 204 200 202 208 218 215 196 196 189 192 198 202 204 206 203 202 196 194 198 193 191 191 200 203 198 197 189
306 242 237 241 235 223 221 219 215 216 216 212 211 209 209 208 206 204 206 209 210 208 208 191 186 193 196 201 204 205 209 210 214 213 207 204 204 209 201 208 211 215 212
299 295 278 238 241 230 224 222 218 215 216 217 213 213 211 208 207 204 205 209 204 205 210 194 199 200 200 203 209 214 216 217 218 215 208 214 215 214 205 205 217 223 219
283 284 280 273 243 235 227 227 223 219 215 216 216 214 213 209 208 206 207 208 208 207 204 205 205 204 205 207 212 217 222 222 222 222 220 222 223 220 217 220 227 233 231
285 277 278 281 274 241 239 230 226 222 219 217 216 216 215 213 210 208 209 211 212 211 209 209 214 213 213 213 215 219 223 224 224 229 230 229 228 227 222 223 232 249 240
293 283 265 274 286 272 241 247 233 228 224 222 221 218 217 216 215 211 211 213 214 215 215 215 220 224 222 221 221 223 224 228 229 232 233 235 235 233 232 229 228 234 242
283 278 267 264 282 287 269 244 236 231 228 227 224 222 221 218 217 215 213 213 217 216 218 220 221 224 225 227 228 228 226 228 232 236 238 237 239 240 239 241 233 233 237
291 293 275 259 276 284 289 279 239 235 229 230 231 226 223 221 218 217 217 217 221 221 221 223 226 229 231 232 232 232 231 231 235 240 239 242 243 244 247 253 246 236 238
279 281 257 254 259 278 286 289 254 232 234 234 235 231 223 221 221 218 219 221 220 225 227 226 227 231 236 237 235 233 235 237 239 241 244 246 247 247 250 255 254 251 239
276 273 283 256 248 261 277 291 277 249 237 237 226 228 218 224 220 220 221 220 223 224 228 230 229 232 238 240 240 239 237 241 243 243 245 249 248 248 249 249 255 256 255
266 271 275 251 249 253 274 279 284 269 233 240 244 227 225 230 209 218 223 224 221 227 230 232 233 233 236 236 236 241 240 241 244 243 245 246 246 247 247 248 253 257 261
263 268 266 251 234 245 265 273 268 273 255 243 221 208 228 250 225 239 243 229 227 231 236 235 232 233 235 232 229 235 247 246 244 243 243 245 247 246 245 246 252 255 257
264 264 271 254 227 246 254 271 258 264 252 250 239 237 228 226 227 240 230 228 239 237 241 241 235 232 236 233 231 225 220 236 245 250 247 246 248 246 248 250 252 256 258
271 258 241 231 214 221 242 253 252 249 249 249 253 253 255 249 232 229 233 234 241 239 244 244 242 235 234 235 229 233 232 244 237 265 255 248 246 248 251 253 253 254 259
271 253 207 213 232 216 217 225 250 248 252 247 244 243 243 242 226 216 233 236 246 243 248 248 247 239 235 235 236 236 236 240 247 252 265 259 255 253 252 253 256 258 261
267 252 223 210 214 220 237 224 231 246 240 242 243 247 246 243 241 227 210 225 257 251 251 251 252 244 238 237 241 239 242 242 244 246 251 259 262 265 263 258 259 260 263